GFSGL_500_spd_000.txt.gz
Wind_Speed
8 11 11 11 12 10 12 15 16 15 13 19 20 20 22 25 23 31 32 32 30 33 28 25 21 18 19 18 13 13 13 14 11 10 8 8 7 6 5 8 10 11 14
9 12 13 14 13 13 12 13 15 17 17 16 18 21 21 20 20 24 28 25 28 25 19 17 15 13 14 13 14 15 13 11 10 10 8 7 7 9 9 9 12 15 17
14 16 15 14 15 18 15 14 15 18 18 20 20 22 24 21 17 17 19 18 19 20 19 18 16 17 18 17 15 13 12 11 9 8 8 7 7 8 11 14 17 19 20
14 15 14 16 16 15 15 17 16 16 17 18 17 16 14 14 16 16 18 20 20 20 20 19 17 16 14 13 12 11 9 8 7 8 8 10 12 14 14 17 20 23 27
10 12 12 12 14 13 14 15 17 18 19 18 19 20 20 20 19 19 20 19 18 17 16 15 15 14 14 12 11 9 7 7 8 10 13 14 16 17 19 21 24 28 33
7 8 10 11 13 15 15 16 17 18 19 19 20 19 18 16 16 16 16 17 17 17 15 14 13 13 12 12 11 9 9 9 11 13 14 16 17 19 22 26 29 31 32
9 9 11 11 13 17 17 17 19 20 19 19 19 18 16 15 15 14 13 13 13 12 11 10 9 9 8 8 8 9 11 13 15 16 17 18 22 26 28 30 32 35 38
9 10 12 13 12 15 17 16 16 15 14 13 13 12 12 12 13 14 14 13 12 11 10 9 7 7 8 9 10 11 12 14 17 20 22 26 28 31 33 35 38 42 45
9 10 10 11 12 12 14 14 13 11 10 9 8 7 7 8 9 9 10 10 10 9 7 6 6 7 6 6 9 13 17 21 24 25 26 28 31 34 38 40 44 47 49
11 10 10 10 10 10 10 10 10 9 8 6 6 6 7 7 7 8 9 10 7 4 3 5 7 8 10 12 15 19 20 21 22 25 28 31 35 39 43 44 46 48 49
13 12 11 9 8 7 7 6 5 4 4 5 6 7 8 8 8 8 9 10 10 9 9 10 12 13 13 16 20 22 23 24 26 29 33 38 41 43 45 46 48 52 53
17 14 12 10 8 7 5 6 6 5 5 7 7 9 9 10 10 10 10 9 11 11 13 15 15 16 17 21 26 30 29 31 34 36 40 43 47 47 47 49 50 53 55
19 19 17 16 14 13 12 11 11 10 9 9 11 11 12 13 13 14 14 13 14 15 15 17 17 18 22 27 31 34 36 38 40 42 46 46 49 50 50 52 53 57 59
24 23 23 21 20 18 18 16 16 15 15 15 14 14 15 16 16 16 17 19 19 19 21 21 22 25 27 32 37 40 41 43 43 44 44 47 53 50 49 54 58 62 66
26 26 26 24 23 22 21 21 21 21 21 21 19 19 19 19 20 22 23 24 23 24 24 26 29 32 35 39 43 46 46 47 50 52 53 51 53 53 57 62 66 69 70
24 25 26 26 25 24 23 24 25 25 25 24 24 23 23 24 25 26 27 28 29 30 29 30 33 36 39 43 46 46 51 50 54 59 53 52 53 61 61 65 68 72 74
24 23 26 26 25 24 24 25 26 27 27 26 26 26 26 27 28 30 30 31 33 35 36 37 39 40 42 44 47 48 53 53 54 49 53 56 61 65 69 72 74 75 76
23 25 28 27 26 26 26 26 26 27 27 25 26 26 27 27 29 32 35 38 39 39 41 41 43 46 44 45 49 49 57 51 53 54 63 63 68 73 73 74 74 75 75
29 30 30 29 30 29 29 28 27 27 27 26 27 28 29 30 33 35 39 43 44 45 46 45 44 47 46 54 50 48 56 56 60 63 64 69 73 74 74 74 76 76 76
35 33 33 32 32 31 31 30 30 31 32 32 33 34 36 36 38 38 41 44 48 44 50 48 49 47 47 51 58 57 57 61 63 64 69 70 74 75 77 76 74 75 77
28 31 35 38 35 36 35 33 34 35 36 37 37 38 39 40 42 45 45 46 48 52 53 54 52 49 47 50 53 57 60 63 65 69 73 76 77 76 75 75 81 85 86
32 32 31 30 31 31 30 31 34 37 40 41 42 42 44 46 46 46 48 49 55 60 57 57 51 43 49 52 54 57 61 65 67 71 73 73 72 75 82 87 90 92 92
32 33 35 36 35 35 36 36 36 37 41 45 48 50 51 50 51 49 54 53 61 49 42 35 42 46 50 53 56 58 62 65 67 66 68 72 78 84 88 91 91 90 85
36 35 38 39 39 37 40 40 38 38 37 38 45 52 59 57 57 53 58 47 40 40 46 50 50 51 51 54 58 60 60 61 63 67 73 79 85 87 86 82 73 66 62
38 40 40 45 44 41 42 50 41 35 40 43 48 45 51 54 39 31 28 34 37 41 42 44 47 50 52 52 51 52 57 63 69 75 79 82 81 75 66 58 56 51 50
43 44 44 53 49 52 35 38 38 44 45 43 45 52 35 25 30 32 32 35 38 39 42 45 46 45 46 48 53 58 63 67 72 75 75 69 61 56 53 51 51 49 49

GFSGL_500_spd_003.txt.gz
Wind_Speed
5 6 6 8 9 14 12 13 13 16 19 17 22 22 24 31 28 22 35 27 29 24 28 30 25 21 23 24 23 19 17 16 18 18 16 14 11 9 6 5 7 8 12
8 8 7 7 10 13 10 13 14 16 17 23 23 23 30 27 33 24 25 23 26 28 24 23 25 19 19 19 20 17 19 20 19 16 11 8 6 4 4 5 11 14 14
9 6 9 10 13 14 13 17 19 22 22 22 23 22 24 25 28 32 31 27 25 25 24 22 22 22 22 21 22 19 15 14 11 10 9 7 7 6 7 9 13 16 18
10 10 11 13 14 14 14 15 17 18 19 20 20 22 22 22 20 22 23 23 22 22 21 20 22 22 21 20 18 16 14 11 9 8 10 9 8 9 12 15 18 20 21
8 9 10 11 11 12 14 14 15 18 19 18 16 15 16 21 24 25 25 24 23 22 21 20 19 19 18 15 14 12 10 9 9 9 9 10 12 14 15 17 19 22 27
8 7 8 9 12 14 15 15 15 17 19 20 20 20 19 18 17 18 19 20 20 19 17 15 14 14 13 11 8 8 8 8 7 8 10 12 15 18 19 22 25 30 30
7 8 9 9 11 14 16 19 18 18 18 19 18 18 16 16 15 14 13 14 13 13 12 11 10 9 8 8 8 9 8 8 11 14 16 17 20 23 25 28 31 32 34
7 8 9 10 10 13 16 17 18 18 17 15 13 12 11 11 11 11 10 10 9 9 9 8 8 9 9 8 7 8 10 11 13 16 19 23 26 28 28 30 33 36 39
10 10 10 9 10 10 13 15 14 13 11 9 9 8 8 8 8 8 8 8 8 8 6 4 4 5 6 7 8 10 13 17 20 23 25 26 26 28 31 36 39 41 42
12 11 11 9 9 9 8 9 9 8 6 4 2 2 3 5 7 8 9 10 10 9 7 6 7 9 10 11 13 15 18 21 23 24 25 26 29 34 39 42 44 47 49
14 13 12 12 11 9 8 7 6 5 4 3 4 4 6 6 7 8 10 13 14 12 10 10 10 11 12 14 17 20 22 25 27 29 31 34 38 42 45 47 48 50 52
17 15 13 12 12 10 7 7 7 6 6 6 5 5 5 5 6 8 10 13 16 16 16 15 15 16 17 19 23 26 27 28 29 32 36 40 44 47 47 48 50 53 55
18 17 16 14 13 10 9 9 8 8 7 7 7 9 9 10 11 11 12 14 15 16 17 18 18 18 22 25 27 28 30 32 35 38 41 43 46 49 55 56 56 57 56
24 24 22 19 18 16 15 15 15 13 13 12 11 12 12 13 14 16 18 18 20 20 20 21 22 24 26 29 30 33 35 36 38 40 42 43 48 53 54 58 58 56 61
26 27 27 26 25 23 21 20 20 19 18 17 17 17 17 16 19 19 20 22 24 24 23 24 26 29 31 32 33 36 38 40 43 43 46 48 50 54 58 54 57 62 69
27 28 29 29 28 26 25 25 24 24 23 23 22 21 23 24 24 25 25 26 28 29 29 30 34 35 36 36 37 40 42 46 47 48 48 50 53 52 58 61 66 68 70
28 29 30 30 30 29 27 27 27 27 27 27 25 25 26 27 28 28 29 30 31 31 33 35 37 38 39 40 43 45 47 47 50 52 52 54 56 62 64 68 70 73 77
29 29 32 30 29 28 28 28 28 28 28 29 28 27 28 29 29 30 30 30 31 32 34 37 40 43 47 51 49 48 50 51 54 54 58 61 64 63 67 70 74 78 80
38 36 35 33 30 29 30 30 29 29 29 31 29 28 29 30 30 31 33 34 35 35 37 43 46 44 53 48 52 54 59 59 62 64 63 62 62 65 70 74 76 79 81
36 35 35 35 33 32 33 33 32 32 31 31 29 30 31 32 34 35 38 39 40 40 43 47 43 49 55 57 57 62 62 69 72 68 58 61 65 69 72 74 77 79 82
37 34 37 37 39 32 35 35 35 35 33 33 34 34 36 37 38 40 41 43 45 46 47 49 53 56 60 65 57 56 66 72 69 57 59 61 64 67 70 72 76 82 88
39 38 39 41 41 36 35 36 38 38 34 32 32 33 35 38 40 42 46 48 50 50 51 58 53 60 67 68 74 50 53 51 53 55 58 59 61 65 71 76 81 87 88
40 33 36 33 29 31 33 35 38 38 37 37 37 36 37 40 42 44 49 53 56 56 55 59 64 67 64 51 44 47 47 50 53 54 55 60 65 69 75 82 85 82 78
45 42 36 30 31 32 35 37 40 42 43 43 41 39 42 39 39 43 40 51 53 53 58 58 55 49 44 44 42 44 46 48 50 54 59 64 68 74 76 75 72 69 63
39 40 37 36 37 37 37 40 42 44 47 46 47 48 48 42 39 43 53 52 59 61 39 37 44 43 39 39 40 40 44 50 55 59 62 66 68 67 69 68 68 56 51
41 40 44 44 39 39 38 41 41 46 46 55 46 37 35 46 44 44 44 46 39 38 41 39 39 38 36 37 40 46 50 52 54 57 61 61 63 65 68 71 64 59 49

GFSGL_500_spd_006.txt.gz
Wind_Speed
4 3 5 7 8 10 11 15 18 14 17 17 19 23 21 24 21 19 22 25 27 19 26 31 23 17 22 23 25 25 22 19 17 15 12 13 13 14 12 10 9 9 10
5 3 4 6 5 9 12 14 18 18 20 19 22 28 21 16 16 16 21 18 24 22 19 16 13 27 27 25 24 20 19 18 16 15 15 14 14 13 9 11 11 11 13
6 6 6 8 7 9 15 13 17 20 22 24 29 22 24 26 35 23 25 20 15 24 27 25 22 23 26 24 21 19 17 17 16 15 14 12 13 15 12 11 11 12 14
10 7 8 10 10 11 14 16 18 19 19 22 24 25 27 28 25 22 17 18 17 13 18 21 18 23 21 19 20 20 18 16 14 13 13 15 15 13 14 14 13 15 17
9 10 9 9 11 11 11 12 14 15 18 18 18 21 21 21 26 30 26 24 22 21 21 20 21 21 22 22 20 19 17 15 14 15 13 11 12 12 13 13 15 17 22
7 9 8 7 9 11 13 14 13 14 15 19 20 20 21 21 21 21 21 22 21 21 22 21 19 20 19 17 14 13 12 10 9 7 8 10 13 14 14 17 21 24 27
8 9 10 8 9 12 13 14 15 16 17 18 19 20 20 19 20 19 20 20 19 17 16 14 14 13 13 12 10 9 8 10 10 10 11 12 14 17 20 24 27 28 29
8 9 11 11 11 12 14 16 17 18 17 16 16 15 15 14 13 13 14 15 15 14 14 14 13 14 12 9 9 10 10 10 11 12 14 18 21 24 26 26 28 30 35
8 9 11 12 12 12 13 15 16 14 13 12 12 10 9 9 8 8 8 8 8 7 8 8 7 8 9 11 11 10 9 10 14 16 19 22 24 25 26 30 35 38 41
10 10 10 11 11 12 11 10 9 9 7 7 6 5 5 4 4 6 7 8 9 9 8 7 7 8 8 8 9 10 13 16 19 19 22 24 26 28 33 37 41 43 45
11 10 10 10 10 10 10 7 6 4 4 3 2 2 2 3 5 6 7 9 10 11 9 8 9 10 10 12 14 17 20 22 21 23 25 28 31 34 38 40 42 44 48
12 11 11 11 10 9 9 7 6 5 5 4 3 3 3 3 4 5 8 9 12 15 16 17 16 15 16 19 21 21 23 24 26 28 31 33 36 39 42 45 46 48 50
18 15 13 12 12 10 9 8 6 5 5 5 5 6 7 8 9 10 11 12 13 15 18 19 18 19 22 22 23 25 27 29 31 34 37 38 41 44 47 49 52 53 55
21 20 18 16 15 13 12 10 10 11 11 11 10 9 9 10 13 14 15 17 17 17 18 18 20 23 26 28 29 31 32 34 37 40 42 46 48 50 51 53 56 60 64
22 25 24 22 21 20 19 17 17 16 17 17 17 15 15 16 16 16 17 17 18 19 21 23 25 27 28 29 31 33 36 38 41 44 48 51 53 54 57 58 59 58 67
23 23 25 26 26 27 26 26 25 23 23 23 23 22 22 20 21 21 21 22 23 25 26 28 29 30 31 32 35 38 39 41 46 51 55 56 56 58 61 62 64 68 72
28 27 27 26 26 28 30 30 29 29 27 26 26 26 25 23 24 24 24 24 25 25 26 27 28 29 31 35 39 43 47 48 48 51 50 56 63 69 64 65 70 73 75
30 30 31 28 28 27 28 30 31 31 31 29 28 28 26 26 26 26 27 27 27 27 27 29 31 33 37 41 44 48 49 50 54 53 55 60 69 65 63 68 73 72 67
31 28 28 26 25 26 29 31 30 30 31 32 28 29 28 27 27 27 27 28 30 30 33 34 36 40 42 44 47 51 52 56 60 59 63 65 62 55 61 63 61 64 68
35 33 33 34 34 34 33 33 32 32 32 34 31 30 30 29 28 29 30 32 33 34 36 38 40 43 45 47 49 51 50 57 57 59 68 66 59 67 57 60 65 66 70
39 40 42 40 41 45 34 35 33 36 37 36 34 31 34 32 32 33 33 35 34 36 38 40 43 46 48 49 55 56 53 54 57 62 61 59 58 59 58 60 65 70 74
44 41 42 41 38 36 35 36 36 38 38 37 37 38 37 38 38 37 36 37 38 42 41 41 42 44 45 52 56 59 58 54 60 57 51 51 52 55 59 62 66 70 73
45 43 41 43 42 41 39 37 39 39 39 36 37 38 38 38 40 41 43 45 44 42 41 45 51 54 58 56 57 53 54 49 48 46 47 51 54 56 59 64 68 73 74
44 48 46 45 43 41 39 37 34 38 38 36 37 36 38 41 43 45 45 48 45 43 44 53 57 54 47 48 44 49 44 42 42 46 49 50 54 58 61 66 69 70 71
46 49 50 49 46 47 38 36 40 40 40 38 38 40 41 43 45 49 51 46 46 51 54 59 52 50 44 42 40 39 39 39 44 45 48 51 55 59 64 65 66 67 72
42 49 58 51 49 52 49 40 42 41 44 43 41 42 44 48 54 52 52 55 51 52 52 50 45 42 40 38 35 33 37 41 43 45 48 53 55 58 58 59 63 68 72

GFSGL_500_spd_009.txt.gz
Wind_Speed
2 6 8 9 12 13 12 10 12 9 11 14 16 17 20 18 20 23 30 16 28 41 18 15 26 26 30 29 27 21 19 17 17 16 13 11 8 7 7 6 6 6 7
4 7 9 9 12 12 15 14 15 14 12 13 17 20 22 21 21 18 17 29 18 21 24 26 31 27 28 22 26 23 14 12 12 11 9 8 9 9 8 6 8 11 12
6 9 9 9 11 12 14 14 17 14 15 12 8 7 14 16 23 18 14 13 22 15 12 23 30 27 20 18 19 20 13 11 9 10 10 11 9 8 8 11 11 11 15
7 10 9 10 10 13 14 12 15 17 19 14 16 13 16 19 21 17 11 9 9 14 17 15 22 23 20 19 19 17 14 11 11 10 9 8 8 7 8 11 14 17 20
9 10 9 9 10 10 11 13 14 16 16 20 20 17 19 20 16 15 16 11 16 18 14 19 21 21 18 14 10 9 10 11 11 11 11 8 8 13 15 18 21 20 20
6 6 7 7 9 8 9 11 10 11 13 17 23 24 16 19 20 22 23 21 18 19 19 21 21 18 16 15 15 16 13 11 10 10 12 13 15 17 19 18 19 20 25
4 5 8 8 9 11 10 11 13 18 19 18 19 21 21 21 23 21 21 21 21 19 18 18 19 18 17 15 13 11 10 10 12 13 13 15 16 16 17 20 23 27 28
6 6 9 9 9 11 13 15 16 16 17 18 19 19 19 17 15 15 15 15 15 16 16 15 15 15 14 13 12 13 13 14 14 15 15 15 18 20 22 23 26 28 30
5 7 9 12 12 13 15 16 15 14 14 14 14 14 14 15 15 13 11 11 11 11 12 11 11 12 12 10 11 11 12 14 14 16 18 19 19 21 23 25 30 32 36
5 7 8 10 13 14 13 12 11 10 10 10 10 10 10 9 8 10 12 12 11 9 10 10 9 10 11 13 13 13 14 16 19 18 19 21 23 25 28 31 35 40 43
8 7 7 7 9 11 11 9 6 4 3 3 4 5 5 4 3 4 4 5 8 10 12 12 11 10 11 12 14 16 17 18 20 22 23 25 29 32 35 39 42 47 50
8 8 8 8 7 7 7 6 5 4 3 3 2 2 2 2 1 2 4 6 7 9 11 12 12 13 14 15 17 18 19 21 22 25 29 32 36 39 42 45 48 51 56
11 10 9 9 8 7 6 5 4 4 3 2 1 2 3 4 5 6 6 6 7 9 11 12 13 14 16 18 19 21 23 26 29 32 35 38 41 44 47 51 54 57 60
17 15 13 12 11 10 9 8 6 6 6 7 7 6 6 6 7 7 9 10 11 12 12 13 15 16 18 20 23 25 27 28 32 35 38 41 44 48 51 54 58 59 61
21 20 18 17 16 15 15 14 13 13 12 12 13 14 14 13 12 12 13 13 14 15 16 17 19 20 22 24 26 27 28 30 34 37 40 46 50 53 52 57 58 61 64
21 21 24 24 23 22 22 22 22 21 21 21 20 20 19 18 18 18 18 18 19 20 21 22 23 24 26 27 27 30 29 32 38 42 45 50 49 48 56 62 65 69 70
24 23 23 25 27 27 27 28 27 27 27 26 25 25 23 23 23 23 21 21 22 22 23 24 24 25 26 28 30 36 38 40 43 46 49 49 50 54 60 62 62 67 67
26 29 31 31 28 27 26 26 27 27 27 28 28 27 26 26 26 25 24 24 24 24 24 24 24 27 30 33 36 40 44 45 46 50 54 56 59 58 61 66 72 71 70
27 30 32 31 32 32 31 31 30 28 27 27 27 27 28 26 27 27 27 27 27 26 26 26 30 31 34 38 41 43 46 48 51 53 56 58 60 62 67 67 62 59 59
33 31 32 33 29 30 30 29 30 29 28 29 28 29 26 27 29 29 29 30 31 31 30 33 35 36 39 41 40 43 44 44 47 54 61 61 63 68 61 55 54 56 61
38 36 34 35 37 34 34 36 37 38 37 35 33 28 28 32 31 30 32 33 34 37 37 39 39 40 42 44 46 48 48 53 63 61 61 58 55 48 49 51 55 59 61
45 42 41 39 40 40 41 42 42 46 47 43 40 24 27 38 32 34 35 37 39 39 39 40 43 44 44 45 43 52 57 61 60 55 55 45 45 46 49 53 58 60 62
47 50 50 44 44 45 47 45 46 50 49 45 38 31 28 38 34 34 34 37 37 40 43 46 47 49 49 50 51 55 58 46 45 43 42 42 45 48 51 54 57 60 65
38 38 42 44 47 48 48 45 46 53 53 45 33 31 37 37 32 35 38 39 41 43 45 47 48 49 49 53 54 56 54 43 41 39 38 44 46 48 49 54 58 61 65
35 38 37 41 42 46 46 45 44 43 41 43 43 37 38 35 37 41 40 41 44 46 50 55 56 54 51 56 51 45 41 39 34 36 41 44 46 47 52 56 58 60 63
40 35 34 35 38 45 50 47 47 48 45 49 47 37 37 41 44 46 44 46 50 55 55 61 62 63 58 46 38 36 35 32 36 39 41 44 46 48 51 52 54 57 60

GFSGL_500_spd_012.txt.gz
Wind_Speed
4 8 9 11 12 12 17 15 13 10 13 14 11 11 20 18 15 14 16 18 21 24 16 28 19 25 33 24 25 22 24 30 26 23 16 13 9 9 9 6 5 7 6
8 6 10 10 12 13 18 20 11 10 15 19 16 20 24 20 17 18 17 18 21 24 22 18 26 28 20 29 30 29 18 18 14 12 10 9 7 5 5 7 7 5 5
11 9 11 12 13 12 15 21 19 11 10 10 16 21 23 24 19 17 14 12 18 9 15 17 19 26 27 30 22 21 14 10 9 10 9 6 4 7 7 4 4 6 9
11 10 11 12 14 14 12 18 23 21 8 12 12 17 23 20 21 21 19 20 23 22 27 27 29 29 20 19 20 13 13 14 11 10 9 10 9 6 4 6 8 11 15
11 9 9 9 11 12 11 13 17 18 17 13 19 22 20 19 17 19 16 16 15 19 22 26 24 17 18 17 17 15 11 11 12 12 10 8 6 6 6 9 13 18 24
8 8 6 7 8 10 10 7 12 18 20 20 16 16 16 17 17 15 18 19 12 14 16 19 18 16 20 19 16 16 16 14 11 9 7 4 4 8 13 17 22 25 26
5 6 7 8 9 10 12 12 14 18 20 20 16 18 20 21 21 18 18 20 19 20 18 19 19 16 15 15 15 13 11 9 6 4 6 10 13 17 20 23 25 27 30
5 6 8 9 9 11 15 16 17 18 18 19 19 18 18 18 18 19 19 21 21 18 18 18 17 16 14 13 12 10 8 8 9 11 13 16 19 20 21 24 26 25 28
5 5 9 12 12 13 14 14 15 17 18 17 13 13 14 15 16 16 16 16 17 17 16 15 14 12 11 9 9 9 8 10 12 15 16 17 20 21 22 24 27 29 32
4 5 8 12 14 15 14 12 11 12 13 14 15 16 14 10 9 11 12 12 11 11 10 11 10 9 8 8 8 9 11 13 15 16 16 17 19 21 24 28 33 36 41
4 5 6 8 11 12 12 11 9 7 6 6 7 8 8 9 10 8 5 3 2 3 4 3 3 4 6 9 9 11 13 15 16 16 17 19 23 26 29 35 38 42 46
4 5 5 5 6 8 7 6 5 6 7 7 7 8 8 8 7 5 4 5 5 5 6 6 6 7 9 11 11 12 14 14 16 19 22 25 27 30 34 38 40 44 48
8 6 6 6 5 4 4 4 5 5 6 6 6 6 7 7 6 5 4 3 2 2 1 3 7 9 9 9 11 14 15 17 21 24 26 30 32 35 38 40 45 49 51
12 10 8 8 7 6 5 5 3 2 0 1 3 3 5 6 6 5 5 4 4 4 5 7 8 10 12 14 16 18 20 23 26 28 30 33 36 41 46 48 51 53 55
15 15 13 12 11 10 10 9 8 6 6 6 7 8 9 9 9 10 10 10 10 10 12 13 14 16 17 19 20 20 23 27 28 30 34 38 42 45 50 54 56 58 60
17 17 18 17 16 16 15 15 14 15 15 15 15 15 14 14 15 16 15 16 16 16 16 18 18 19 20 23 21 21 24 27 31 35 39 43 47 51 51 50 54 57 61
22 21 20 20 21 21 22 23 22 23 21 21 22 21 20 20 18 19 19 20 19 19 20 21 22 22 22 24 22 24 29 33 36 38 40 43 45 44 48 56 63 64 67
23 23 23 22 21 23 23 24 25 24 24 23 24 24 21 22 21 23 23 22 21 22 23 24 24 23 24 25 29 32 35 37 39 40 43 45 47 54 58 60 66 69 59
32 27 24 25 27 26 28 27 27 27 26 26 27 25 23 22 23 23 23 24 23 23 23 24 26 26 29 32 34 38 38 40 43 46 46 49 53 58 61 67 70 55 49
30 33 30 27 26 27 27 28 29 28 27 27 24 25 25 27 26 26 25 26 27 27 26 25 29 31 33 36 39 39 41 43 45 48 49 56 59 64 66 59 47 48 50
29 32 32 33 32 28 27 29 29 29 31 31 29 29 32 37 31 31 31 29 30 31 31 31 33 37 38 40 41 44 46 48 48 51 52 53 59 57 42 47 46 48 52
33 33 35 35 34 35 33 33 33 34 35 36 38 36 38 45 46 34 36 35 33 33 34 36 36 37 40 43 44 47 49 50 49 51 56 57 46 45 44 45 48 50 52
34 37 38 38 39 40 39 39 39 40 40 42 46 45 44 47 48 41 34 33 33 34 34 37 38 40 43 46 49 51 53 53 51 55 56 46 44 45 44 47 48 50 54
34 35 37 37 36 40 42 45 48 48 46 47 49 51 52 52 51 47 33 29 34 36 36 39 41 43 45 50 52 58 52 52 55 49 46 42 42 41 44 45 48 52 53
35 35 33 34 33 33 35 38 47 50 47 49 44 42 40 47 38 29 29 33 36 36 39 37 41 47 52 60 54 48 54 57 54 38 37 40 38 41 43 46 50 51 52
37 39 38 37 35 28 31 35 39 40 45 47 46 47 46 40 41 40 43 39 34 38 47 48 43 50 49 39 45 49 49 38 34 37 36 35 38 40 43 48 50 51 52

GFSGL_500_spd_015.txt.gz
Wind_Speed
7 9 11 13 13 20 20 18 17 21 20 15 17 19 15 16 16 15 18 17 19 20 23 23 22 26 26 19 25 21 25 20 25 23 26 21 22 15 14 14 14 13 12
8 9 11 11 13 20 22 20 19 21 20 20 21 20 18 18 18 16 17 18 19 21 21 21 18 25 25 24 21 22 19 27 28 27 21 17 15 15 15 15 13 11 9
11 11 12 13 15 19 20 21 21 18 15 23 23 23 20 18 19 15 11 15 18 17 13 23 19 19 25 19 19 24 28 28 26 20 21 18 18 18 15 12 10 9 8
10 12 11 15 16 17 20 17 15 21 14 19 21 30 27 20 18 19 12 9 15 16 19 16 16 23 22 26 29 28 25 21 20 19 17 16 15 15 14 11 9 9 10
7 9 9 11 14 12 16 19 20 20 22 18 20 23 23 25 23 17 17 18 13 18 22 29 30 30 28 24 23 27 24 22 20 18 17 17 14 12 8 5 7 11 14
7 8 9 10 13 13 14 19 22 23 22 21 19 19 21 19 17 18 17 18 26 29 31 26 27 26 25 23 21 20 19 19 18 15 13 11 8 6 6 7 12 16 21
7 8 9 10 12 16 17 20 22 22 23 20 20 20 18 19 21 20 16 13 18 27 19 19 18 22 20 21 18 17 18 16 15 13 10 7 6 6 8 14 18 21 25
7 7 9 10 14 17 18 19 21 23 23 23 22 21 20 21 20 18 20 19 18 19 20 18 20 21 21 21 19 16 14 13 11 9 6 5 8 10 15 20 22 23 26
7 7 9 12 15 17 18 18 19 18 19 19 19 19 19 19 19 19 19 19 19 17 17 18 17 16 15 14 13 11 9 7 2 3 6 11 12 13 16 19 21 24 27
9 7 9 11 13 15 16 18 18 18 17 18 18 17 16 16 16 16 15 15 14 14 14 13 14 13 11 9 7 6 5 4 7 9 11 11 13 15 19 21 25 29 33
10 10 8 9 9 9 10 11 11 11 12 14 14 12 12 13 14 13 11 10 11 9 9 8 6 6 4 3 4 5 5 7 9 11 14 14 15 19 23 28 31 34 39
10 9 9 9 9 8 6 5 8 11 13 14 14 15 15 13 10 8 8 8 7 6 4 3 3 3 1 4 6 7 8 9 12 14 16 19 21 25 29 32 34 37 41
11 10 10 9 9 8 8 7 8 10 12 12 12 13 12 11 11 10 9 7 5 4 2 1 3 5 6 6 7 8 10 13 15 18 21 25 27 28 31 35 39 43 46
13 11 10 11 10 9 8 9 9 8 7 7 8 8 7 7 6 6 5 3 2 2 3 4 5 7 8 9 11 13 15 17 20 24 25 26 28 31 36 39 43 45 47
14 14 12 11 11 11 10 8 7 6 5 2 1 2 3 3 3 3 3 4 4 5 6 7 9 11 12 13 14 16 19 21 23 23 25 28 31 35 38 39 42 43 51
15 16 16 15 13 12 11 11 11 10 8 7 7 8 8 8 9 9 9 9 9 10 11 12 14 15 14 14 16 20 21 22 23 26 29 31 35 39 42 45 47 49 52
19 18 17 18 17 17 16 15 15 14 14 14 14 14 15 16 16 16 14 14 13 14 15 16 17 17 15 17 19 21 23 24 27 30 32 35 40 43 46 48 50 56 59
23 21 21 20 18 18 19 19 19 18 17 17 17 15 15 17 19 19 19 18 19 20 20 19 19 17 21 22 23 24 27 29 32 35 37 40 44 46 47 49 51 54 56
18 21 21 19 20 21 20 21 20 21 21 20 20 19 20 19 19 20 20 21 22 22 24 24 22 23 24 25 27 28 31 34 36 37 39 42 45 46 48 50 55 54 43
23 26 29 30 28 24 23 21 20 20 21 21 20 19 20 18 18 21 21 23 25 27 28 25 27 29 30 31 32 34 35 36 37 40 43 43 47 49 50 53 54 47 49
25 23 27 30 32 32 27 22 21 21 20 22 23 23 25 25 26 25 26 31 34 33 33 27 32 32 33 34 33 33 35 37 40 43 47 51 51 51 52 52 44 42 45
26 27 26 26 29 31 33 30 28 28 29 28 26 27 32 31 30 30 31 36 41 44 42 33 35 36 34 34 34 35 36 36 40 47 50 50 52 52 53 48 44 43 46
26 27 27 25 28 32 34 35 33 31 32 33 34 32 32 37 41 37 37 43 44 46 47 39 36 36 38 38 36 36 36 41 46 43 41 43 49 49 44 38 41 42 44
25 30 29 28 29 28 31 33 35 34 33 34 38 39 37 39 43 43 38 30 37 36 31 32 30 37 42 37 35 36 38 41 40 39 45 45 48 38 37 39 38 40 43
35 34 32 33 35 32 30 31 33 33 33 34 36 37 36 37 37 34 32 34 36 31 28 31 35 43 49 45 46 48 43 34 40 45 44 38 35 38 37 36 38 40 42
40 40 37 36 35 34 32 31 32 31 32 29 29 31 30 32 32 31 32 33 35 37 36 39 42 46 44 45 40 45 43 37 39 41 40 36 37 35 33 35 39 39 42

GFSGL_500_spd_021.txt.gz
Wind_Speed
9 8 9 12 12 9 14 15 13 11 13 10 12 15 17 18 21 19 21 22 20 24 22 20 20 17 20 17 15 16 21 22 23 16 26 26 24 30 29 20 19 19 21
6 9 9 11 14 11 11 14 14 13 12 12 11 12 13 15 17 17 18 18 26 27 23 21 19 18 15 13 15 16 15 15 18 19 32 30 29 32 27 19 20 21 21
4 7 8 11 12 11 8 10 14 12 12 12 12 12 13 14 18 16 16 16 20 25 23 20 17 16 15 8 15 12 12 16 19 23 30 30 33 25 24 21 23 18 16
8 5 9 11 12 10 8 9 15 14 14 14 11 9 11 15 14 15 17 19 21 20 18 14 14 15 16 14 13 15 13 17 22 21 25 29 27 29 29 26 18 19 18
7 4 8 10 14 14 13 13 14 13 13 18 16 13 11 13 16 18 18 17 16 17 17 17 14 14 15 13 16 12 11 18 22 24 27 27 29 31 23 19 21 16 10
6 6 7 10 11 15 14 15 11 10 15 10 18 11 12 10 6 11 16 17 21 18 20 17 14 10 11 9 6 15 25 28 25 25 24 24 20 21 21 17 12 7 8
4 5 9 11 10 10 10 10 13 13 12 12 15 17 15 15 17 14 15 16 17 20 19 18 13 14 12 18 21 30 34 30 28 29 23 21 21 18 14 11 10 9 8
5 6 11 14 12 14 17 18 17 15 16 15 16 17 19 24 24 24 22 21 23 20 22 24 26 27 31 32 28 28 26 22 19 19 19 17 15 12 10 10 8 6 10
6 7 10 14 13 13 15 17 17 17 18 19 20 19 17 20 19 19 20 24 29 29 28 30 27 26 25 23 22 21 23 22 18 14 12 10 9 8 7 6 8 11 15
7 8 9 14 15 15 16 14 14 15 16 16 18 19 18 21 23 23 23 25 27 25 23 19 22 23 23 22 20 20 17 14 11 9 8 8 8 6 8 10 12 16 20
7 9 10 11 11 11 12 13 14 14 13 14 15 17 18 18 19 19 21 20 23 21 20 19 18 16 15 15 13 10 8 8 9 8 7 6 7 9 11 15 19 22 24
6 9 10 10 9 8 8 10 10 13 14 13 12 13 14 14 15 15 14 15 16 15 15 14 13 11 9 7 6 4 3 4 5 5 6 8 10 13 17 21 22 23 27
6 7 9 9 10 10 10 12 14 14 16 16 16 17 15 14 12 11 11 11 10 9 9 8 7 6 4 3 2 2 3 5 7 9 11 13 15 17 20 21 23 27 30
10 8 7 10 12 11 11 13 14 14 13 14 14 14 14 14 12 11 10 10 9 8 7 6 4 3 2 2 4 6 9 11 12 14 15 17 19 19 21 24 27 30 33
11 11 10 10 10 10 11 13 13 12 12 11 9 8 8 7 7 5 4 3 2 1 1 2 4 5 6 8 11 13 15 16 17 19 20 22 23 22 25 27 31 32 35
12 13 13 12 12 11 11 12 11 10 10 8 5 2 1 3 3 2 3 4 5 6 7 8 9 10 10 13 16 17 17 18 19 21 22 22 24 26 29 31 31 34 38
18 15 16 16 15 15 14 13 12 11 11 10 8 7 7 7 5 4 5 6 8 9 11 12 13 13 14 18 20 20 20 21 22 23 24 26 28 30 32 31 33 34 39
21 20 19 19 19 19 19 18 17 16 16 15 14 14 12 11 10 10 9 10 12 14 11 11 12 14 16 21 24 24 25 26 26 27 29 31 32 34 32 32 34 38 43
20 21 23 22 22 22 21 21 21 21 20 19 18 17 16 16 16 14 14 14 15 13 11 12 12 14 17 22 28 29 32 32 32 31 32 34 35 35 34 34 37 42 45
21 22 23 23 26 26 23 22 22 22 21 21 20 21 21 20 18 18 16 15 16 17 17 19 20 20 22 26 32 34 40 41 37 35 38 37 37 38 36 35 40 44 44
22 21 22 22 21 23 25 24 23 22 22 23 22 23 24 21 19 17 18 18 21 23 24 26 25 26 25 29 29 26 32 38 35 40 37 38 39 39 39 38 43 41 47
21 21 23 24 25 25 24 25 26 28 29 28 28 26 26 24 23 23 23 22 24 26 27 28 31 31 33 34 35 32 33 31 33 33 37 42 43 46 42 41 43 46 46
26 25 24 23 24 26 26 27 27 23 23 25 27 30 31 31 30 30 31 30 31 31 32 35 37 36 37 45 43 33 29 31 35 32 36 42 47 51 57 55 47 51 47
29 28 27 26 25 24 25 26 27 27 27 28 28 29 31 32 33 35 37 36 36 37 39 39 40 40 39 38 35 33 34 38 39 40 41 44 49 51 57 49 49 44 51
30 29 29 30 27 26 25 24 25 25 26 27 28 29 30 32 32 33 34 36 38 42 43 42 36 37 36 41 39 36 41 47 50 47 39 43 45 50 45 50 55 53 50
36 34 33 34 34 34 33 31 32 32 31 31 31 33 34 34 35 36 34 36 37 36 36 35 34 37 39 35 36 40 41 40 42 48 51 51 51 41 41 40 49 45 48

GFSGL_500_spd_024.txt.gz
Wind_Speed
12 12 12 14 16 12 14 14 12 10 10 9 11 15 16 20 18 21 20 21 19 19 19 18 16 16 11 14 16 22 17 20 24 31 22 22 23 23 26 24 19 21 21
10 10 11 14 15 11 10 13 11 10 9 8 9 13 16 14 15 16 21 20 20 20 20 18 13 15 17 14 14 18 17 21 25 26 21 25 22 27 24 29 21 21 23
13 9 13 14 16 6 8 10 10 8 9 9 9 9 12 15 13 14 16 18 21 20 16 14 15 16 12 10 12 12 14 20 19 19 21 23 23 23 24 27 24 25 24
12 8 13 14 11 7 9 13 12 9 9 8 8 9 11 14 13 15 15 17 23 20 18 14 11 11 9 7 12 6 11 14 18 21 24 24 22 27 27 25 24 22 15
10 8 10 13 13 12 11 11 13 13 12 12 11 8 11 11 14 14 15 15 17 19 15 12 10 10 9 9 9 8 11 14 17 22 29 22 24 24 24 21 23 15 11
7 10 9 10 12 11 12 10 9 7 12 12 10 9 9 12 15 17 17 17 18 18 17 14 12 11 9 10 9 12 12 19 17 19 25 25 28 24 26 22 13 11 9
6 9 8 9 12 12 10 11 11 8 14 12 14 9 9 12 12 16 16 16 20 20 18 16 14 13 9 5 12 16 15 17 22 26 21 22 23 22 15 11 11 10 8
6 8 10 12 14 14 14 15 15 13 14 15 18 21 19 17 13 17 18 19 15 12 16 15 14 11 6 12 17 24 24 22 21 19 19 18 13 12 11 8 8 8 7
6 7 9 10 13 15 15 15 17 18 19 20 20 15 14 18 20 19 21 18 18 19 17 17 10 16 15 22 31 27 25 25 20 17 16 12 10 10 10 8 6 8 10
5 6 9 12 13 12 13 14 15 17 18 19 21 23 23 21 23 22 24 23 20 21 21 21 24 27 24 22 21 19 20 15 15 13 12 11 9 7 7 7 7 10 13
5 6 6 8 10 11 12 12 13 14 15 17 19 22 24 24 26 24 21 21 23 22 21 20 20 17 16 17 18 14 13 15 13 11 8 6 5 6 7 10 11 14 17
4 6 5 4 5 7 7 8 10 11 14 15 16 16 18 21 21 21 20 18 18 20 20 20 20 18 16 14 12 10 9 7 6 4 4 6 7 8 10 13 16 19 20
2 6 7 5 4 6 8 10 13 15 15 16 18 18 17 17 17 17 17 16 15 15 15 14 14 12 10 9 7 5 4 2 1 2 4 6 9 12 15 18 21 21 24
4 4 7 7 7 8 10 11 12 13 16 19 19 19 18 17 17 16 15 14 14 13 11 10 8 7 5 4 2 1 2 3 5 7 9 12 15 17 20 22 23 24 27
4 5 6 8 10 9 10 10 10 10 12 12 13 13 13 12 11 10 9 8 7 6 5 3 2 2 3 4 6 7 7 8 10 12 13 16 19 21 22 23 25 28 31
7 6 8 9 11 11 11 11 9 8 8 6 4 4 5 6 5 5 4 4 3 3 3 3 4 5 6 8 10 11 12 13 15 17 19 21 23 25 26 28 30 32 34
13 11 10 10 12 12 12 12 11 9 9 8 6 4 4 4 3 1 3 3 4 4 4 4 5 7 8 11 13 14 15 17 19 21 23 26 29 30 30 31 33 34 36
16 16 15 14 14 14 14 14 13 13 13 13 12 11 11 10 8 6 6 7 9 9 9 9 9 8 9 12 14 15 15 17 21 26 33 27 33 35 35 36 36 36 38
16 15 17 17 17 16 16 16 17 17 17 18 17 17 16 15 12 11 11 13 14 14 12 12 12 13 14 16 19 21 21 23 25 27 29 29 29 33 33 35 36 38 40
21 19 18 18 19 19 19 20 20 21 21 19 20 20 17 16 17 17 16 16 15 15 14 16 18 19 19 21 23 25 26 29 33 31 36 36 32 29 32 34 36 39 43
21 21 21 21 22 21 20 22 24 23 23 22 23 23 22 19 16 17 15 15 17 18 20 21 24 25 26 28 29 29 30 32 40 39 36 32 37 34 33 37 38 42 49
24 22 23 22 23 22 20 20 21 23 24 23 23 24 25 24 24 22 21 21 23 25 26 27 27 28 30 31 34 37 36 39 43 40 38 35 37 40 41 43 44 51 50
29 27 27 25 24 23 22 22 24 25 25 24 25 27 26 25 26 27 28 28 29 29 31 32 32 33 35 36 39 39 41 42 39 35 36 41 41 39 40 44 45 45 47
33 32 30 29 26 25 24 24 24 25 26 27 28 28 27 26 26 27 27 29 30 33 34 35 35 36 38 41 43 45 37 41 35 36 37 40 42 41 48 51 50 45 50
37 36 33 29 26 27 27 26 26 27 28 28 27 27 27 27 27 26 28 29 31 33 35 35 35 35 35 35 35 34 37 40 42 40 39 43 47 44 44 48 47 46 40
42 37 33 30 32 32 30 28 29 30 31 30 28 28 29 30 32 33 33 34 34 35 36 35 36 37 37 39 40 39 39 40 41 41 42 45 49 49 49 50 46 40 39

GFSGL_500_spd_027.txt.gz
Wind_Speed
14 12 15 17 17 14 13 8 10 11 12 12 11 12 15 16 16 16 17 16 16 16 15 14 11 13 17 15 14 12 9 13 19 23 23 23 25 26 32 21 18 21 18
14 13 15 17 17 9 10 10 12 10 11 11 11 15 13 11 15 15 17 17 18 18 17 13 13 10 11 13 12 16 18 18 29 25 21 20 24 27 24 20 17 20 19
13 12 13 16 9 9 12 11 10 10 11 10 10 12 15 12 11 13 16 14 16 18 13 9 15 16 15 15 14 12 20 25 29 23 21 21 21 21 22 19 21 22 21
13 12 12 10 13 10 13 14 12 11 8 8 7 10 12 10 11 14 13 12 15 16 13 12 13 10 10 13 13 15 19 23 26 22 19 23 16 23 22 25 23 23 21
10 10 10 11 16 14 11 11 14 13 9 10 7 6 10 11 10 11 13 15 17 13 10 9 8 9 11 12 9 13 16 20 18 17 16 21 20 21 21 27 25 22 17
9 8 10 8 8 10 10 8 13 12 11 7 5 7 8 10 12 12 12 15 18 14 11 8 7 8 10 9 10 9 10 15 15 15 20 19 20 25 25 25 22 20 12
8 9 10 12 15 14 14 12 9 14 13 12 7 7 11 11 11 15 15 17 19 17 14 11 11 9 9 8 9 11 9 16 13 23 21 17 23 28 24 22 21 15 9
8 9 13 14 14 16 17 15 14 11 13 20 20 17 11 13 18 17 15 15 15 17 15 15 15 10 6 9 10 12 10 15 17 21 20 21 24 23 23 14 10 8 8
8 9 11 11 12 13 17 17 16 17 21 23 19 15 18 13 19 19 19 17 14 14 14 15 11 5 7 9 14 19 21 21 21 19 20 21 17 14 11 9 8 7 8
8 11 11 11 11 12 14 16 16 18 21 25 25 20 21 24 20 18 17 14 12 11 11 14 10 12 17 24 25 25 24 21 18 17 16 13 10 8 6 6 8 10 11
7 8 9 10 10 12 13 13 15 17 19 22 25 27 28 28 26 24 20 19 17 17 18 23 19 18 20 21 18 16 22 20 16 12 8 7 6 7 9 10 10 10 13
6 6 6 6 7 8 9 10 13 15 16 18 20 23 24 26 26 25 23 22 23 23 22 23 22 20 18 18 20 20 13 10 8 9 9 9 9 8 8 9 11 14 17
5 5 5 5 6 9 12 12 13 16 17 18 19 20 21 21 22 22 23 22 20 19 19 19 18 17 16 14 14 11 10 9 8 6 5 4 6 7 9 12 15 18 21
5 5 5 5 7 9 12 14 15 16 18 20 21 21 22 21 20 19 18 18 17 16 14 13 12 12 11 11 10 9 7 6 4 3 3 6 9 12 15 18 21 23 25
7 5 5 7 8 10 12 12 13 15 15 15 16 16 16 16 15 15 15 14 12 11 9 8 6 5 4 3 2 2 1 1 2 4 7 10 13 17 20 22 24 26 28
8 8 7 7 10 10 11 11 11 10 8 8 8 9 9 10 10 8 8 7 6 5 4 2 1 1 2 3 3 4 5 5 6 8 11 14 18 21 25 26 28 30 31
12 11 10 9 10 10 10 10 10 9 8 6 3 1 3 5 4 4 4 3 4 3 1 2 4 4 6 7 7 6 5 6 8 11 14 19 24 26 25 30 33 34 35
15 15 14 14 13 12 12 11 10 11 10 9 8 6 5 4 3 4 5 6 7 6 6 7 8 8 8 7 8 9 9 13 15 17 18 23 26 27 33 31 33 35 35
15 16 17 16 15 14 13 13 13 13 13 12 11 11 11 10 7 7 8 10 11 10 9 9 10 10 10 12 14 16 17 19 21 23 23 24 30 33 33 29 30 32 34
20 18 20 20 20 18 17 16 16 17 16 15 16 16 14 13 12 11 11 11 12 13 12 11 11 13 15 18 20 21 23 25 27 30 31 33 35 39 35 34 34 38 42
23 21 20 21 21 21 20 19 19 19 20 20 19 18 17 17 17 16 15 15 16 16 15 15 16 18 21 22 23 24 26 29 32 36 36 39 42 38 33 34 33 36 41
25 24 23 23 24 24 24 25 23 22 22 23 24 23 22 21 20 20 21 22 23 23 22 22 22 22 22 24 26 28 28 29 33 36 41 45 41 42 38 41 43 40 44
30 29 28 27 25 25 25 25 24 23 22 22 23 22 23 25 27 28 26 26 26 26 28 29 28 27 28 29 30 30 31 32 32 33 34 36 38 41 38 40 41 45 46
35 33 33 32 30 28 28 28 27 26 26 25 26 26 25 23 23 24 27 28 28 29 29 29 31 32 33 33 32 32 32 32 31 33 37 38 38 38 41 43 45 47 47
40 38 38 34 36 33 32 32 29 28 27 26 26 27 28 28 27 29 31 31 30 29 29 30 31 32 34 35 35 35 33 33 36 38 38 38 42 44 44 45 47 49 50
42 41 42 41 40 40 36 34 34 33 30 30 31 31 30 29 28 29 31 31 31 32 33 34 34 34 34 34 36 36 37 37 38 40 41 44 45 44 42 46 46 48 45

GFSGL_500_spd_030.txt.gz
Wind_Speed
14 14 12 16 17 10 10 8 8 9 9 10 11 13 13 12 14 13 13 13 10 12 15 13 13 15 15 11 17 19 23 22 17 16 13 29 28 18 32 20 23 27 23
14 9 12 15 9 11 7 9 9 9 9 8 13 12 12 12 11 13 13 12 11 10 11 14 16 15 13 13 9 6 7 10 20 22 20 25 23 25 21 24 23 24 22
11 9 11 6 11 10 12 11 10 8 8 9 12 12 10 12 11 13 12 11 13 8 10 13 15 16 15 13 14 14 10 16 21 20 19 19 22 22 23 20 20 23 20
8 8 8 9 8 10 12 14 10 6 6 7 9 12 11 12 10 12 12 13 12 5 18 17 14 13 18 15 12 15 14 22 21 15 19 21 15 25 18 17 18 22 19
6 6 4 8 10 8 5 7 9 5 6 6 8 11 9 9 14 14 11 14 14 8 11 11 11 14 18 12 12 14 19 24 20 20 21 16 20 21 19 15 21 23 18
6 5 5 4 4 7 6 8 9 7 6 4 8 9 12 10 12 13 13 15 13 11 9 9 10 13 15 12 13 12 14 17 15 12 15 17 17 17 16 20 22 22 16
7 6 9 11 10 10 10 9 10 15 12 8 4 7 11 12 12 13 12 18 15 11 9 7 9 11 13 12 12 12 13 16 16 12 15 16 17 23 23 24 23 20 19
7 8 10 13 12 12 11 12 13 11 13 12 13 6 12 11 14 15 13 15 16 14 11 9 11 12 9 7 12 11 13 16 18 17 20 16 22 21 25 25 22 18 12
7 7 10 11 11 12 12 14 15 13 15 15 14 9 15 16 17 17 15 12 12 11 11 12 10 9 5 11 13 14 15 12 21 23 21 22 19 22 20 18 12 8 9
8 10 12 11 11 13 12 15 17 18 19 16 16 19 17 20 20 19 17 14 12 11 12 13 7 8 11 11 16 20 21 21 19 18 20 23 18 15 14 9 8 9 11
8 9 11 11 11 13 12 14 18 18 21 23 24 28 22 19 17 16 11 10 9 11 16 11 11 17 23 23 24 21 20 22 23 20 16 13 10 10 8 7 8 10 12
6 6 7 8 9 10 12 11 14 18 18 20 23 26 29 33 33 22 20 19 17 23 25 24 27 24 19 19 24 23 22 17 16 13 11 8 6 5 5 7 10 12 14
7 5 5 7 9 12 13 13 13 15 18 19 20 21 22 23 26 26 22 22 26 26 25 24 24 22 21 21 20 17 13 10 7 7 5 3 1 4 7 11 14 17 19
9 7 6 7 10 13 14 16 16 17 20 22 21 21 21 21 20 19 19 20 18 18 17 16 15 13 12 10 9 9 8 8 5 3 2 4 7 9 11 13 16 19 22
10 9 8 8 9 12 13 15 19 19 19 19 20 19 18 19 19 18 17 17 16 15 14 13 12 11 11 9 9 8 7 6 5 5 4 5 7 10 14 18 23 26 28
11 11 10 10 10 11 11 11 12 13 13 13 13 13 13 12 10 10 10 10 9 8 7 7 6 5 4 3 3 2 1 2 3 4 5 8 12 17 21 22 22 29 31
12 11 12 11 11 11 11 11 9 8 7 7 7 7 7 8 7 8 9 9 8 5 3 2 0 0 1 1 1 1 2 4 5 7 9 12 15 17 19 25 29 30 29
16 14 13 14 14 12 12 11 10 10 9 7 4 3 1 2 2 1 1 1 2 2 2 3 4 4 2 1 0 1 4 7 9 12 14 17 21 23 27 31 34 36 34
17 17 16 16 15 15 14 13 13 12 11 10 9 8 7 6 5 5 5 5 5 6 7 7 6 6 6 7 7 8 9 12 15 17 18 20 23 26 28 34 36 37 33
21 20 20 20 19 17 17 17 16 15 14 13 13 13 11 11 10 9 9 9 10 10 10 9 8 7 8 11 13 16 17 17 18 21 23 25 27 31 33 29 31 33 35
21 23 24 22 21 20 20 20 21 20 19 18 18 16 15 13 12 13 13 14 14 14 15 14 13 13 15 17 18 19 20 22 25 26 27 29 29 30 31 32 30 33 35
22 22 23 25 25 25 23 24 23 23 21 21 22 21 21 17 17 18 19 19 19 20 20 20 21 21 22 21 22 23 25 26 27 28 28 28 29 31 34 35 35 36 39
24 25 24 24 25 27 27 27 26 26 25 25 25 24 24 24 24 23 22 23 24 24 23 22 23 24 26 26 25 25 26 26 27 28 29 32 32 34 37 37 37 39 41
28 27 26 27 27 27 28 28 28 28 28 29 28 27 25 26 25 26 26 25 24 23 23 25 26 27 26 26 27 27 28 30 31 31 32 35 36 38 40 40 42 44 45
31 32 32 31 31 30 31 33 32 32 31 31 31 30 30 30 30 30 30 30 29 29 28 28 28 28 28 28 30 31 33 33 35 36 37 38 38 39 41 42 46 48 44
37 37 37 36 36 37 37 37 36 37 36 35 34 34 35 35 33 33 33 33 32 31 30 29 28 29 30 32 34 35 35 38 39 38 39 39 40 41 42 44 45 48 48

GFSGL_500_spd_033.txt.gz
Wind_Speed
14 16 11 14 7 6 6 8 8 7 6 8 7 8 8 9 9 8 5 3 3 7 9 9 9 8 12 12 12 14 19 21 22 29 32 21 17 14 21 21 22 29 25
13 9 10 3 5 6 7 9 7 5 6 10 9 8 9 8 6 5 4 4 4 7 10 10 11 11 14 14 18 20 20 26 27 17 21 19 22 25 23 13 16 25 22
10 7 6 2 5 8 9 7 6 5 5 9 11 9 9 7 4 6 3 3 2 4 7 9 11 7 5 8 6 8 8 15 16 14 17 23 26 21 18 18 16 25 25
6 4 2 3 2 4 5 7 5 4 3 6 8 9 9 7 5 5 6 5 6 20 18 20 19 18 13 12 10 8 13 17 18 19 19 22 19 20 19 19 20 18 18
4 4 4 1 1 1 1 5 6 1 0 6 9 10 9 8 7 9 8 2 12 14 9 13 19 16 11 11 10 13 16 16 13 17 22 19 18 20 19 18 19 23 21
3 4 5 4 1 1 0 4 7 6 3 4 9 12 9 9 13 10 10 8 9 10 10 12 13 12 12 14 12 15 18 19 17 15 14 15 19 19 17 17 21 21 15
4 4 3 5 5 4 4 4 6 10 7 4 10 11 12 11 12 9 11 11 9 8 9 11 13 12 11 12 13 13 15 14 15 16 12 12 16 16 15 22 23 20 15
6 6 5 8 10 9 8 6 4 5 6 10 7 12 12 13 12 10 11 13 10 7 8 10 12 12 12 12 14 13 13 11 13 15 15 13 16 17 19 23 18 20 17
6 6 5 8 10 11 10 10 7 5 7 5 4 13 13 14 15 13 12 14 11 8 10 13 11 12 9 11 12 11 13 13 14 17 20 16 20 22 21 17 16 16 8
8 8 7 9 10 11 11 11 13 12 11 8 9 14 13 13 17 14 13 12 10 11 13 9 4 6 7 13 11 14 13 14 16 21 17 18 18 21 20 18 14 11 5
9 8 8 9 10 10 11 11 15 18 18 13 17 18 17 18 16 14 13 11 10 10 9 8 5 9 10 11 14 14 18 18 16 16 14 16 16 14 12 9 4 8 9
8 7 6 7 7 9 10 10 11 17 19 22 19 14 19 14 12 9 9 8 8 9 8 8 14 15 16 20 19 16 15 16 19 21 20 17 9 7 5 3 4 7 11
8 7 6 7 9 9 11 12 10 14 18 19 23 25 26 25 25 26 19 26 28 30 31 33 31 28 24 23 24 25 20 15 12 12 10 7 5 2 1 4 7 10 14
9 8 8 9 11 12 13 14 15 14 17 19 20 21 21 21 23 24 26 27 26 25 23 22 22 20 18 15 14 12 11 10 9 8 6 4 2 2 5 8 10 12 15
9 9 10 11 13 13 13 16 19 20 20 20 20 20 20 21 20 20 19 19 19 18 17 16 14 12 12 12 11 10 8 7 5 3 2 1 3 5 9 12 13 15 21
10 11 11 12 13 13 14 13 12 13 12 13 14 14 12 12 13 14 14 14 13 12 11 10 9 9 8 8 7 6 6 5 3 2 2 1 4 7 10 12 17 22 26
11 10 11 12 12 13 13 12 9 7 6 7 8 9 10 11 11 12 12 11 9 8 7 7 7 7 6 5 4 4 3 2 1 2 5 9 11 14 16 19 23 26 29
13 12 11 12 12 12 13 12 10 9 6 4 2 3 5 7 6 5 4 5 6 6 6 6 3 2 2 2 3 2 1 2 4 7 10 12 13 16 19 21 23 26 28
16 15 14 14 13 12 12 12 12 11 9 6 4 3 2 2 1 2 2 2 1 3 3 3 4 2 1 2 4 6 9 10 12 12 13 15 18 19 21 22 23 24 30
18 17 17 17 16 15 15 15 14 14 13 12 10 9 7 8 8 6 5 4 3 2 3 4 4 3 3 3 6 8 10 12 14 15 17 19 21 21 23 23 25 28 32
20 21 21 19 20 18 17 18 19 18 18 17 16 15 14 14 11 9 11 11 11 10 9 7 7 9 10 11 13 14 14 15 17 18 21 22 22 23 25 29 31 32 33
22 21 21 22 23 21 22 21 21 21 21 20 20 18 19 19 17 17 17 18 17 15 14 13 14 14 15 17 18 19 19 19 19 20 21 22 25 27 30 32 35 37 37
24 23 24 23 24 25 25 25 25 24 25 25 24 22 21 22 22 23 23 22 21 20 19 19 18 17 17 18 18 19 19 19 21 23 25 27 30 32 33 34 37 40 43
28 27 27 27 27 26 25 25 26 27 28 28 27 27 25 26 25 25 26 26 26 25 24 22 21 21 22 22 21 21 22 23 25 28 28 30 32 35 35 35 37 43 41
32 31 29 28 29 29 27 26 26 27 28 29 30 31 31 30 29 29 29 29 29 29 28 27 26 28 29 28 25 24 26 27 30 34 35 33 33 35 36 37 40 42 43
34 37 36 34 31 30 30 30 31 31 31 30 31 32 35 35 34 33 34 33 32 33 32 32 32 32 31 29 29 30 32 33 33 36 35 35 35 37 39 40 43 42 43

GFSGL_500_spd_036.txt.gz
Wind_Speed
16 16 20 16 15 11 7 7 6 5 0 4 2 1 1 4 7 6 5 7 3 2 5 7 10 9 8 11 9 9 13 17 19 20 20 22 22 25 17 17 24 26 19
14 15 16 14 10 6 5 5 5 4 2 3 3 4 6 6 4 5 5 5 3 3 3 4 3 13 10 11 11 11 14 17 19 20 21 20 20 18 15 19 20 20 13
13 14 14 10 8 3 4 7 6 3 2 5 6 4 3 4 4 4 4 6 4 3 5 4 6 6 4 4 7 12 16 20 19 22 23 20 13 15 16 19 16 11 19
12 12 11 9 10 8 7 8 8 5 4 5 5 6 5 3 3 4 6 4 10 12 10 9 9 6 8 7 7 5 11 13 20 17 16 18 18 18 17 14 16 20 17
11 11 9 9 9 8 7 7 8 7 3 8 6 5 5 5 4 9 8 11 8 11 12 11 10 13 12 9 11 16 18 19 18 22 22 24 20 20 19 18 15 21 22
9 8 8 10 12 7 6 6 8 6 2 6 10 7 5 6 9 11 7 9 6 10 15 14 11 12 12 11 17 18 21 22 25 26 21 18 18 16 14 15 20 21 18
4 4 6 5 3 2 2 4 4 7 7 5 9 11 6 8 12 8 5 6 6 8 11 13 13 12 12 15 20 21 21 21 21 19 15 14 17 15 17 17 20 19 17
2 4 6 5 6 5 4 3 2 5 5 2 9 12 12 8 8 8 9 7 6 7 10 10 11 12 13 17 18 15 14 18 16 15 18 16 19 17 18 19 18 14 11
1 4 4 4 6 9 9 7 4 4 5 4 10 12 13 12 10 9 11 10 5 5 10 10 10 10 12 13 16 16 13 13 13 16 17 18 17 15 16 18 13 9 10
2 4 6 5 6 9 10 12 10 7 8 3 11 12 10 12 11 9 10 11 7 7 11 7 6 6 12 13 11 15 15 14 11 14 13 12 15 12 15 13 9 11 15
4 4 6 5 6 8 11 14 14 17 11 13 16 12 12 14 12 11 10 9 7 8 6 3 1 6 11 10 14 13 16 17 18 14 13 15 13 14 9 10 18 11 3
6 4 3 3 5 8 8 10 13 16 19 9 16 17 14 14 12 11 11 10 9 9 4 5 8 10 15 16 14 16 18 15 12 10 18 21 20 18 13 9 6 2 2
6 5 4 3 4 7 8 9 12 15 19 20 16 14 12 10 9 8 7 10 11 10 4 15 19 22 24 27 30 29 27 26 26 24 18 15 12 10 8 6 5 5 6
6 6 6 6 8 9 11 11 13 15 17 23 23 23 26 28 26 30 32 33 29 28 29 26 26 25 23 23 22 20 18 17 16 13 12 11 9 7 7 5 3 4 6
7 8 9 9 10 12 14 16 18 19 21 20 20 20 21 20 20 22 22 22 21 20 17 16 15 14 13 14 14 14 13 12 10 9 8 8 8 7 7 6 7 10 15
7 9 11 12 10 11 13 13 13 13 14 15 15 16 17 18 17 17 17 17 15 14 13 12 11 10 10 9 9 9 8 8 7 7 9 8 8 6 7 9 12 15 15
9 9 9 11 13 12 11 9 9 8 9 11 12 11 11 14 17 17 17 15 14 12 11 10 9 8 7 6 6 7 8 8 8 7 5 3 3 4 7 10 12 16 15
10 9 10 10 11 12 12 9 6 5 4 6 7 8 10 10 10 11 10 10 10 10 10 8 7 8 8 8 9 8 7 5 3 1 2 3 6 9 12 14 15 17 19
13 12 11 11 11 11 12 11 9 7 5 3 3 2 3 4 4 5 5 4 4 4 5 6 7 6 7 7 5 3 1 2 3 5 7 8 10 12 14 16 17 20 24
16 15 15 13 12 12 12 12 12 11 9 8 8 6 4 3 3 3 4 2 1 2 2 2 1 2 4 2 1 3 5 7 7 8 9 11 12 14 15 17 20 24 25
16 19 17 15 15 15 15 15 14 14 13 13 13 11 12 10 7 5 6 7 7 6 5 4 3 5 5 7 8 9 9 10 11 12 14 16 16 18 20 23 26 25 31
20 19 19 19 19 18 17 18 18 17 16 17 17 16 16 13 13 13 13 13 12 11 11 10 9 9 9 11 12 13 14 15 16 16 16 17 19 21 23 26 29 31 33
23 23 22 21 20 20 20 20 19 20 19 18 18 17 19 20 17 18 19 20 18 17 17 15 15 15 14 15 16 16 16 18 19 19 19 22 24 26 27 30 32 32 35
27 25 22 23 24 22 22 21 21 21 22 22 22 19 19 22 23 21 22 22 22 22 22 21 21 22 21 20 21 19 20 22 24 23 23 25 26 29 32 35 34 35 36
29 28 29 25 26 27 24 24 24 23 23 22 22 22 20 21 24 25 25 26 25 25 25 24 24 25 26 27 28 28 27 27 27 29 32 33 33 33 35 37 39 39 37
33 32 32 31 26 25 27 24 25 28 27 26 25 25 25 23 23 24 26 26 27 29 28 30 31 31 31 32 33 32 31 30 30 31 33 36 35 36 38 40 40 40 37

GFSGL_500_spd_042.txt.gz
Wind_Speed
15 15 16 16 19 18 12 10 12 12 10 8 6 5 3 2 3 6 5 7 3 4 5 7 8 9 11 12 12 13 16 18 20 22 20 27 23 22 22 23 23 16 25
14 14 15 17 17 13 9 9 13 13 9 6 5 2 1 3 5 5 5 8 4 6 4 3 6 15 10 11 8 15 18 19 22 20 25 26 23 20 22 29 19 14 24
12 13 14 16 13 10 9 11 14 13 9 5 4 2 2 5 4 7 8 4 5 4 0 3 3 12 19 15 14 17 20 21 23 26 26 25 24 23 24 25 23 20 14
12 13 15 13 11 9 8 10 10 11 9 5 5 6 2 2 5 8 6 6 8 12 12 7 5 2 8 16 17 18 20 22 24 24 22 23 24 23 21 21 23 19 16
11 13 14 12 10 10 8 9 10 11 10 6 9 5 3 2 3 5 9 4 6 11 11 10 10 8 8 12 17 19 20 21 23 23 22 22 19 19 18 18 18 20 22
11 11 8 6 6 5 5 7 7 7 8 7 10 6 4 5 6 7 9 6 7 9 9 7 8 10 12 13 18 21 24 22 22 19 19 17 20 19 22 23 23 24 23
8 6 5 6 7 7 6 4 6 7 5 4 11 9 7 8 8 4 10 10 9 9 8 8 11 12 13 15 18 21 24 25 26 23 18 22 27 30 26 27 28 26 22
6 2 3 5 7 8 6 4 6 6 4 4 9 11 8 12 7 5 6 8 8 9 8 10 13 16 16 18 22 23 27 29 29 27 30 29 28 27 27 25 27 28 23
3 1 2 3 6 6 8 8 7 5 4 3 8 12 10 11 5 4 5 7 7 7 6 10 16 19 19 20 22 20 23 26 29 30 30 28 26 25 27 25 24 19 12
2 3 2 4 6 8 10 11 8 8 7 9 11 14 12 8 6 6 5 6 7 8 7 6 7 12 12 16 17 19 16 19 25 25 25 28 30 30 26 23 19 18 25
2 4 4 4 5 7 9 12 8 11 13 13 12 14 13 9 8 8 7 6 6 7 7 5 6 6 9 15 14 19 21 21 23 23 26 29 28 29 21 17 18 20 20
2 3 4 4 3 7 11 12 10 14 13 8 9 11 13 13 12 11 10 8 7 5 5 6 10 10 11 14 16 18 23 25 25 27 27 26 23 20 25 26 22 17 14
2 3 5 5 4 7 13 15 14 11 12 12 14 14 12 12 11 11 11 12 7 9 13 12 14 14 13 14 18 24 21 24 26 25 21 26 28 28 23 19 16 13 10
3 4 6 5 6 9 13 17 21 26 23 20 14 12 12 14 13 12 10 7 15 15 17 19 18 17 16 21 21 19 17 21 24 30 31 27 25 22 19 15 11 7 4
7 7 9 9 11 15 15 16 18 20 22 25 26 25 20 18 16 18 24 29 26 26 24 22 27 31 28 24 23 25 27 28 26 27 26 23 20 18 15 11 7 3 2
10 11 11 12 15 17 16 17 18 19 21 21 24 25 27 26 26 23 21 19 19 19 19 21 21 20 23 23 23 23 23 23 23 22 20 18 15 12 8 6 4 2 2
10 11 12 13 13 12 13 12 13 13 12 13 15 19 20 21 19 19 16 15 15 16 16 17 16 15 15 15 15 17 17 18 19 17 14 12 10 6 3 1 2 4 7
12 12 13 13 13 11 9 9 12 11 12 13 15 17 18 18 19 18 17 15 13 14 15 16 15 12 11 11 11 12 14 15 12 9 7 4 2 2 3 4 6 8 10
13 13 13 13 13 11 10 7 7 8 9 11 11 11 11 12 12 12 12 11 12 13 13 13 14 14 14 13 11 10 9 7 6 5 4 4 3 5 7 7 7 8 12
13 13 14 14 13 12 12 11 9 7 5 7 8 7 8 8 7 7 7 8 8 9 10 11 11 11 9 7 5 4 4 5 6 6 6 7 8 9 11 11 12 13 15
16 15 15 15 15 14 13 12 11 10 9 8 6 5 4 5 4 3 5 6 5 5 5 5 7 7 7 5 6 7 7 6 7 8 9 11 13 14 15 15 15 16 18
19 18 17 16 16 15 14 13 13 13 13 11 10 9 7 5 5 5 5 5 5 5 5 4 5 6 7 8 9 10 12 12 13 13 13 13 14 17 19 20 20 20 22
17 18 19 19 18 17 17 17 16 16 16 16 15 14 12 12 11 10 10 9 8 8 9 10 10 11 12 13 14 14 13 14 16 16 16 18 20 22 23 24 26 26 26
22 19 19 20 21 20 20 21 20 20 20 20 19 18 17 17 16 15 15 15 14 14 13 13 13 14 15 17 17 17 17 18 18 18 20 21 23 25 27 28 29 31 31
29 27 25 23 22 21 21 22 22 22 21 22 22 22 23 21 20 20 20 19 19 19 19 19 19 19 18 19 19 20 21 22 22 23 24 24 25 26 28 29 32 33 33
32 30 32 30 28 27 26 25 24 25 24 23 22 22 24 25 25 24 23 23 24 24 22 21 22 22 22 22 22 22 23 25 26 28 28 28 29 30 30 32 34 35 35

GFSGL_500_spd_045.txt.gz
Wind_Speed
17 17 17 14 15 18 16 12 12 14 13 10 8 8 6 5 6 10 8 8 7 7 8 8 7 7 10 10 9 13 13 18 21 21 21 22 14 20 19 23 23 18 18
17 17 15 14 16 17 15 12 14 17 15 10 6 4 4 6 8 9 10 12 7 8 7 4 10 10 9 13 11 12 18 19 20 24 20 21 20 20 21 23 24 23 19
16 15 14 15 17 14 14 13 15 16 13 8 6 5 3 6 8 10 6 5 7 6 5 5 5 13 14 11 8 14 16 19 20 23 25 24 23 21 23 23 27 14 17
16 13 13 15 16 16 15 13 11 12 12 7 7 5 3 5 5 7 2 6 9 9 5 4 1 6 20 13 10 12 18 19 23 25 23 25 24 24 24 27 27 17 17
13 11 14 15 12 12 16 14 11 10 9 7 7 5 5 4 4 4 4 2 5 6 6 6 8 4 14 14 15 15 17 19 22 22 22 20 22 20 18 20 22 17 15
11 11 11 8 8 8 6 7 8 7 9 7 6 8 4 3 3 5 3 2 2 7 8 7 8 8 9 15 17 17 18 21 23 22 22 21 20 19 18 19 17 15 16
9 9 6 5 5 6 6 6 6 8 7 5 4 8 4 5 2 2 5 2 3 7 8 9 7 8 7 9 17 19 22 22 24 27 27 22 20 19 20 21 21 17 14
8 7 6 7 5 5 7 6 7 7 5 3 6 9 7 8 5 4 6 3 5 10 10 10 8 8 10 13 19 23 24 25 24 21 21 18 24 26 30 25 21 25 23
5 6 6 5 3 4 6 7 5 4 6 7 9 11 9 11 5 3 4 6 5 8 11 13 14 16 17 15 19 23 24 24 21 22 22 28 30 25 26 26 26 25 19
3 5 4 3 3 4 6 7 3 1 5 12 15 15 12 9 5 5 3 6 5 6 9 11 15 19 19 18 18 18 20 23 24 26 25 26 28 26 27 29 27 21 18
2 3 3 3 4 7 7 7 3 7 8 13 18 18 13 8 6 6 4 7 7 8 8 12 13 12 14 16 18 19 21 20 21 24 22 23 26 27 27 25 19 18 24
1 2 3 1 4 8 8 7 8 8 9 12 14 15 12 10 8 8 5 5 8 7 6 9 10 11 12 13 14 19 23 21 20 21 26 29 29 27 21 20 25 23 18
2 1 2 2 4 7 8 7 4 6 9 11 11 15 15 12 11 8 8 4 5 9 10 14 13 16 14 13 14 17 19 18 21 24 25 27 24 20 24 23 19 15 12
3 2 3 5 7 9 12 14 13 13 10 9 17 18 14 13 10 9 4 6 8 12 13 16 15 13 12 15 18 16 19 23 26 24 22 22 23 23 21 17 14 14 10
5 6 7 9 11 11 13 15 19 19 20 12 13 17 17 16 13 14 14 14 15 13 13 14 15 16 18 20 19 17 15 19 14 23 24 22 22 18 17 15 13 9 6
9 9 11 15 17 17 18 19 20 21 21 22 18 21 21 26 25 22 19 20 21 21 19 16 13 14 14 15 16 19 19 19 23 21 20 19 19 16 13 9 7 5 2
13 13 15 15 14 14 14 13 13 15 17 18 21 23 23 22 21 20 20 19 19 18 19 19 19 20 21 22 22 22 21 19 19 19 17 16 12 7 5 4 3 1 1
16 15 16 15 13 12 11 12 13 13 13 18 17 17 16 15 15 15 16 16 15 15 15 16 18 18 17 17 16 16 16 18 17 14 12 9 7 5 3 1 2 4 6
19 18 17 15 12 10 10 11 13 15 14 14 15 15 15 14 14 14 15 13 13 14 15 15 15 15 16 15 14 15 15 14 11 9 7 4 3 3 4 5 6 8 11
19 19 18 17 15 12 10 9 8 9 10 10 10 9 9 9 8 9 10 12 12 10 10 11 13 13 13 13 12 10 8 6 5 5 5 6 6 6 7 7 9 12 14
20 20 19 17 16 15 12 11 9 8 7 7 7 8 7 5 5 6 7 7 8 8 7 7 8 7 5 3 2 1 1 1 2 3 5 6 6 9 12 13 16 18 20
21 21 21 19 17 17 17 15 14 12 11 10 10 9 8 7 6 5 6 8 7 6 5 5 5 5 5 5 5 6 6 6 6 8 8 8 9 12 15 18 20 21 23
21 22 24 23 21 20 19 19 19 18 16 15 13 13 12 13 13 12 11 10 9 10 9 10 10 10 11 12 12 13 13 13 14 13 15 16 18 19 21 22 25 26 27
22 22 22 21 23 23 22 22 22 21 21 20 19 17 17 17 17 16 16 16 15 15 14 14 15 16 16 17 18 18 19 21 21 20 21 21 23 25 26 26 27 28 29
29 25 22 21 21 22 23 24 24 23 23 23 23 23 23 22 22 22 21 21 20 20 20 21 22 22 22 23 23 23 24 25 26 26 27 27 27 27 28 28 28 29 31
31 29 30 28 25 24 23 22 22 23 25 27 27 27 26 24 25 25 26 26 26 26 26 26 26 27 28 28 27 27 27 28 29 30 31 31 30 27 27 30 32 31 31

GFSGL_500_spd_048.txt.gz
Wind_Speed
16 17 16 16 14 14 17 19 17 15 15 16 16 12 12 9 10 14 14 13 14 11 8 8 8 4 9 7 8 9 12 20 20 18 22 19 21 23 25 28 27 27 26
15 14 14 14 14 17 19 17 16 15 15 13 14 10 8 9 10 15 16 12 9 9 9 8 5 7 6 9 7 8 12 19 21 22 23 19 13 8 31 25 28 26 26
12 13 14 14 16 18 17 17 15 14 12 10 12 8 7 8 10 11 9 5 7 7 3 7 7 8 10 9 9 9 14 17 21 23 17 19 18 17 19 32 26 21 24
11 13 12 14 17 19 18 17 14 12 10 8 10 9 9 7 9 12 4 4 6 8 3 2 5 5 18 11 9 14 17 18 21 24 17 18 18 21 21 25 24 20 27
10 11 11 14 16 15 14 12 14 12 11 7 9 10 9 6 5 6 5 3 6 6 3 6 6 7 14 15 12 15 20 20 22 22 20 16 18 18 23 24 24 25 18
10 9 11 12 10 10 11 9 9 10 7 5 7 11 6 5 4 5 3 3 7 7 6 3 7 7 11 15 14 16 20 24 25 21 22 22 20 18 20 25 23 15 15
8 8 11 9 9 12 10 9 9 10 8 5 7 11 6 5 1 5 4 4 6 6 7 4 5 7 11 14 16 18 19 22 23 28 27 26 22 21 22 23 22 16 14
7 8 9 8 10 11 9 9 9 9 8 7 8 11 7 4 3 4 5 6 11 9 7 7 5 7 8 14 17 19 20 23 24 23 22 22 23 20 20 24 23 19 11
6 8 6 6 9 8 8 9 11 10 10 10 10 12 10 8 2 1 3 5 11 9 11 11 8 10 11 15 19 20 21 21 20 20 20 20 21 22 24 25 23 19 18
6 4 4 5 7 8 9 10 11 9 10 14 14 15 11 9 4 3 1 5 6 10 14 16 19 15 12 15 18 20 19 20 18 19 20 21 22 25 24 24 24 24 20
5 1 3 5 7 8 11 8 4 7 7 10 16 16 13 9 5 5 3 5 7 11 11 12 14 15 14 14 14 17 19 19 18 18 20 23 20 21 21 24 26 22 18
4 1 3 4 5 8 6 1 1 1 4 10 15 16 13 9 8 5 4 5 7 7 12 11 11 12 12 12 16 16 19 21 21 19 19 21 18 18 21 23 19 17 15
5 2 1 1 4 6 5 2 1 1 7 11 14 12 10 7 9 8 4 4 6 8 9 10 9 10 11 12 16 17 19 19 20 18 18 19 23 25 21 18 19 20 16
6 4 4 4 5 7 12 10 6 6 8 11 12 12 8 8 9 8 4 2 6 10 12 11 11 11 11 12 16 16 17 20 23 22 24 26 22 17 18 19 19 17 14
7 8 8 6 6 8 12 12 14 11 10 14 14 11 9 8 9 10 8 9 11 12 14 15 13 12 14 15 13 14 15 17 18 21 21 16 17 20 20 17 15 11 10
11 12 11 10 11 12 13 13 15 18 16 18 19 13 10 16 17 18 20 20 18 14 13 11 10 14 18 19 17 16 17 14 14 17 18 21 19 16 15 14 11 10 7
15 17 16 15 13 12 12 13 15 21 28 21 20 23 19 15 15 15 16 17 20 23 23 18 14 13 13 15 16 16 15 17 19 22 19 17 16 14 12 10 8 7 6
17 18 16 14 11 9 10 11 14 16 20 21 20 18 17 14 13 12 13 14 17 19 19 19 19 18 20 19 20 20 20 20 17 15 16 14 11 9 9 8 8 7 5
19 20 17 14 11 10 11 13 16 18 20 19 18 19 18 17 15 13 13 12 11 13 15 16 16 17 17 16 15 15 16 17 16 15 13 11 10 10 9 6 3 4 7
22 21 21 18 15 12 11 13 15 16 16 16 13 11 12 13 13 13 13 12 11 13 14 14 14 15 15 15 16 16 15 14 12 11 10 7 5 4 4 3 6 9 12
23 22 21 21 19 16 13 12 12 12 11 10 10 9 8 8 9 10 11 11 10 11 12 14 14 12 11 11 10 9 8 7 6 6 6 5 6 7 8 9 11 13 15
24 23 22 21 21 21 19 16 13 12 12 11 9 8 7 6 7 8 8 8 9 10 10 9 7 6 5 5 5 5 6 6 8 9 10 10 10 11 11 12 14 16 19
19 21 24 24 23 22 21 21 19 17 16 15 14 13 12 10 9 8 7 8 8 7 6 7 7 7 8 8 9 9 9 10 11 10 11 12 14 15 17 19 21 22 24
22 21 23 25 25 26 25 23 22 20 19 18 18 18 18 17 16 15 14 13 13 13 12 12 12 13 13 13 14 15 16 18 18 19 20 20 20 21 23 24 25 27 28
28 27 25 25 25 25 26 26 25 24 23 22 22 22 21 21 21 21 20 20 20 19 19 19 19 20 20 20 20 21 21 23 24 26 26 26 25 26 27 28 30 32 31
33 31 30 29 26 23 24 24 24 23 22 22 23 23 23 23 24 24 24 23 23 23 24 25 26 27 28 28 27 27 27 28 29 29 29 29 28 28 30 32 34 35 34